Weather Roundup
Issued by NWS Chicago, IL

Home | Current Version | Previous Version | Text Only | Print | Product List | Glossary On
Versions: 1 2 3 4 5 6 7 8 9 10 11 12 13 14 15 16 17 18 19 20 21 22 23 24 25 26 27 28 29 30 31 32 33 34 35 36 37 38 39 40 41 42 43 44 45 46 47 48 49 50
000
NZUS59 KLOT 040621
HRRLOT

CHICAGO AREA WEATHER ROUNDUP
NATIONAL WEATHER SERVICE CHICAGO/ROMEOVILLE IL
100 AM CDT MON MAY 04 2015

NOTE: "FAIR" INDICATES FEW OR NO CLOUDS BELOW 12,000 FEET WITH NO
SIGNIFICANT WEATHER AND/OR OBSTRUCTIONS TO VISIBILITY.

* THESE STATIONS ARE NOT UNDER NWS QUALITY CONTROL. THEY ALSO MAY NOT
  REPORT WEATHER SUCH AS PRECIPITATION OR FOG.

ILZ005-006-012>014-019>023-040700-
NORTHEAST ILLINOIS

CITY           SKY/WX    TMP DP  RH WIND       PRES   REMARKS
OHARE          MOCLDY    67  48  50 SW16G23   29.90F
6HR MIN TEMP:  62; 6HR MAX TEMP:  67; 6HR PCP:  0.32;

MIDWAY         MOCLDY    68  49  50 SW13      29.93S
6HR MIN TEMP:  65; 6HR MAX TEMP:  72; 6HR PCP:  0.18;

AURORA         MOCLDY    66  48  52 S15       29.92F
6HR MIN TEMP:  61; 6HR MAX TEMP:  66; 6HR PCP:  0.05;

LANSING*       PTCLDY    65  44  45 SW13      29.96S
JOLIET*        MOCLDY    70  47  45 S14G20    29.94S
WAUKEGAN       MOCLDY    65  52  62 SW15      29.88F
6HR MIN TEMP:  60; 6HR MAX TEMP:  65; 6HR PCP:  0.03;

DUPAGE AIRPORT MOCLDY    64  50  60 S9        29.91F
6HR MIN TEMP:  59; 6HR MAX TEMP:  66; 6HR PCP:  0.28;

WHEELING       MOCLDY    67  49  52 S15G24    29.91F
6HR MIN TEMP:  61; 6HR MAX TEMP:  67; 6HR PCP:  0.06;

KANKAKEE*      MOCLDY    65  47  53 S15       29.97F
MORRIS*        MOCLDY    66  47  51 S14       29.91F
LEWIS AIRPORT* MOCLDY    68  45  43 SW18G25   29.93F
NORTHERLY IS     N/A     68  46  45 SW10        N/A
$$

WIZ051-052-058>065-066-070>072-040700-
SOUTHEAST WISCONSIN

CITY           SKY/WX    TMP DP  RH WIND       PRES   REMARKS
MILWAUKEE      CLOUDY    65  52  62 SW15G21   29.86F
6HR MIN TEMP:  63; 6HR MAX TEMP:  67;

KENOSHA*       CLOUDY    66  53  63 SW15      29.87F
RACINE*        CLOUDY    66  52  60 SW14      29.88F
BURLINGTON     CLOUDY    59  53  80 SW9       29.86F
WAUKESHA       CLOUDY    61  52  72 S8        29.86F
WEST BEND      LGT RAIN  63  52  67 W14G24    29.89R
$$

INZ001>003-010>013-019-020-040700-
NORTHWEST INDIANA

CITY           SKY/WX    TMP DP  RH WIND       PRES   REMARKS
GARY*          PTCLDY    69  39  33 S9        29.95S
6HR MIN TEMP:  59; 6HR MAX TEMP:  79; 6HR PCP:  0.03;

MICHIGAN CITY* NOT AVBL
RENSSELAER*    NOT AVBL
VALPARAISO     PTCLDY    64  44  48 S8        29.98S
$$

LMZ740>746-040700-
SOUTHERN LAKE MICHIGAN

STATION/POSITION TIME  SKY/WX   TEMP WIND        PRES    VSBY
                                AIR  DIR/SP/G
                 (UTC)          (F)  (DEG/KT/KT) (MB)    (MI)
HARRISON CRIB    0600            68  210/ 25/ 32   N/A
BURNHAM HARBOR   0600            68  180/  9/ 15   N/A
CALUMET HARBOR   0500            67  180/  8/ 11   N/A
BURNS HARBOR     0500            69  180/ 11/ 16 1014.6F
MICHIGAN CITY    0600            68  150/ 15/ 20   N/A
$$

ABBREVIATIONS USED IN REMARKS
   TC - TEMPERATURE IN CELSIUS
  WCI - WIND CHILL INDEX
   HX - HEAT INDEX
  VSB - VISIBILITY
$$


USA.gov is the U.S. government's official web portal to all federal, state and local government web resources and services.